Starlink 35196

operational
NORAD ID: 66007 Int'l Des: 2025-232 Owner: SPXS Country: US Constellation: starlink
LEOCIRCULAR

关于 Starlink 35196

正在加载描述...

实时位置

正在加载3D地球...

即将过境

高度历史

Altitude vs Time

uPlot chart will show altitude changes over time

两行轨道根数

1 66007C 25232C 25290.40951389 .00981960 00000+0 13673-2 0 2908
2 66007 53.1575 58.9265 0008802 285.7993 198.3015 16.04146858 14
Epoch: Oct 17, 2025 • Age: 63 hours

当前状态

高度 249.0 km
速度 7.76 km/s
星下点 5.71°N, 156.87°E
发射日期 Oct 16, 2025
运行时间 3 days
类型 internet

技术详情

分类 Payload
质量 575.00 kg
干质量 530.00 kg
总质量 575.00 kg
长度 0.30 m
直径 4.10 m
跨度 29.00 m
形状 Box + pan
制造商 SPXS
平台类型 Starlink V2MO
阶段状态 In Orbit
所有者/国家 SPXS/US

大型星座

Loading constellations...